COSMOS 2406

导读 | 豆包AI

COSMOS 2406(宇宙2406)是独立国家联合体(CIS)发射的军用卫星,隶属于俄罗斯/苏联“宇宙”(COSMOS)卫星系列。它于2004年6月10日成功发射,进入近地轨道运行,目前轨道高度维持在843×861千米,轨道倾角71.0°。“宇宙”系列卫星涵盖多样功能,包含军事侦察、空间科学探测等领域,该卫星是独联体空间部署的重要组成部分,持续在轨完成既定任务。

Basic Information
目录编号:
28352
目录名称:
COSMOS 2406
国际标识:
2004-021A
轨道中心:
EARTH
卫星名称:
COSMOS 2406
卫星全名:
--
卫星状态:
在轨 (已飞行7994 天)
发射日期:
2004-06-10 UTC
国别 :
俄罗斯(独联体) (CIS)
星等 :
--
Orbit Information
数据来源 国际轨道数据
星历时间: 2026-04-30T13:31:18+0800
11小时前
查看轨道信息
半长轴: 7230.218km
偏心率: 0.0011252
轨道倾角: 70.996°
近地点辐角 220.395°
升交点赤经 199.727°
平近点角 139.634°
近地点: 843.945km
远地点: 860.217km
周期: 101.973分钟
每日圈数: 14.121334
Detailed Information
使用方式:
暂无
2D Orbit Map
3D Orbit Map
Orbit Altitude Analysis Chart
Orbit Inclination Analysis Chart
Orbit Comprehensive Analysis Chart
View Comprehensive Chart